FW9014 Weather Reports


time (UTC)temp
F
wind
direction
speed
knots
gust
knots
rain 1hr
in
rain 24hr
in
rain mn
in
humidity
%
barometer
mb
20260506050109 76 199 14.8 21.7 0.00 0.01 0.00 90 1009.6
20260506044549 76 185 13.0 17.4 0.00 0.01 0.01 90 1009.5
20260506043049 76 192 13.0 19.1 0.00 0.01 0.01 90 1009.5
20260506041558 76 185 13.0 20.9 0.00 0.01 0.01 90 1009.2
20260506040055 76 192 12.2 18.2 0.00 0.01 0.01 90 1009.3
20260506034552 76 184 12.2 17.4 0.00 0.02 0.01 90 1009.2
20260506033047 76 186 11.3 17.4 0.00 0.02 0.01 90 1009.1
20260506031545 76 184 10.4 13.9 0.00 0.02 0.01 90 1008.9
20260506030045 76 186 9.6 13.0 0.00 0.02 0.01 90 1008.9
20260506024546 76 186 9.6 12.2 0.00 0.02 0.01 90 1009.0
20260506023050 76 173 7.8 11.3 0.00 0.02 0.01 90 1008.7
20260506021551 76 176 10.4 15.6 0.00 0.02 0.01 90 1008.2
20260506020053 76 179 9.6 13.9 0.00 0.02 0.01 89 1007.9
20260506014547 76 173 11.3 18.2 0.00 0.02 0.01 88 1007.6
20260506013053 77 180 13.9 18.2 0.00 0.02 0.01 88 1007.5
20260506011548 77 182 12.2 20.9 0.00 0.02 0.01 87 1007.2
20260506010046 77 190 12.2 19.1 0.00 0.02 0.01 87 1007.3
20260506004548 77 193 13.9 20.0 0.00 0.02 0.01 87 1007.0
20260506003050 77 173 12.2 15.6 0.00 0.02 0.01 88 1006.9
20260506001554 78 168 11.3 15.6 0.00 0.02 0.01 87 1007.0
20260506000054 78 178 12.2 16.5 0.00 0.02 0.01 86 1006.9
20260505234546 78 184 10.4 13.9 0.00 0.02 0.01 86 1007.0
20260505233056 78 184 9.6 13.0 0.00 0.02 0.01 86 1006.9
20260505231552 79 181 7.8 14.8 0.00 0.02 0.01 85 1007.0
20260505230112 79 186 7.0 11.3 0.00 0.02 0.01 84 1007.0
20260505224545 79 186 8.7 13.0 0.00 0.02 0.01 84 1006.9
20260505223047 79 183 9.6 13.9 0.00 0.02 0.01 83 1007.0
20260505221554 78 177 6.1 8.7 0.01 0.02 0.01 84 1006.9
20260505220054 79 200 7.8 13.9 0.01 0.02 0.01 83 1007.1
20260505214548 79 199 12.2 15.6 0.01 0.02 0.01 83 1007.2
20260505213048 79 186 8.7 10.4 0.01 0.02 0.01 83 1007.3
20260505211558 80 206 8.7 11.3 0.00 0.01 0.00 80 1007.3
20260505210046 79 205 6.1 8.7 0.00 0.01 0.00 82 1007.7
20260505204549 80 211 10.4 13.0 0.00 0.01 0.00 81 1007.8
20260505203051 79 210 7.8 10.4 0.00 0.01 0.00 83 1008.2
20260505201551 79 186 8.7 13.0 0.00 0.01 0.00 82 1008.5
20260505200056 79 223 7.8 12.2 0.00 0.01 0.00 82 1008.6
20260505194554 79 202 7.8 17.4 0.00 0.01 0.00 83 1008.8
20260505193101 78 217 7.8 11.3 0.00 0.01 0.00 84 1008.9
20260505191554 77 203 7.8 11.3 0.00 0.01 0.00 85 1008.8
20260505190052 77 203 7.8 12.2 0.00 0.01 0.00 85 1009.2
20260505184551 78 212 8.7 13.0 0.00 0.01 0.00 84 1009.3
20260505183046 77 216 10.4 12.2 0.00 0.01 0.00 85 1009.4
20260505181554 77 213 12.2 19.1 0.00 0.01 0.00 84 1009.5
20260505180045 77 217 10.4 16.5 0.00 0.01 0.00 85 1009.5
20260505174557 77 219 10.4 13.0 0.00 0.01 0.00 85 1009.6
20260505173047 77 220 8.7 13.9 0.00 0.01 0.00 85 1009.8
20260505171548 76 215 10.4 14.8 0.00 0.01 0.00 85 1009.7
20260505170050 76 217 10.4 13.9 0.00 0.01 0.00 86 1009.9
20260505164554 76 205 11.3 15.6 0.00 0.01 0.00 85 1009.9
20260505163054 76 185 11.3 14.8 0.00 0.01 0.00 86 1010.0
20260505161551 76 216 8.7 14.8 0.00 0.01 0.00 86 1010.0
20260505153047 75 214 9.6 13.0 0.00 0.01 0.00 87 1009.9
20260505151553 75 196 8.7 12.2 0.00 0.01 0.00 87 1009.9
20260505150105 74 205 10.4 15.6 0.00 0.01 0.00 88 1009.8
20260505124553 70 177 9.6 13.9 0.00 0.01 0.00 93 1009.4
20260505123057 69 164 9.6 13.0 0.00 0.01 0.00 92 1009.0
20260505121544 69 179 8.7 12.2 0.00 0.01 0.00 93 1009.4
20260505120051 69 163 9.6 13.0 0.00 0.01 0.00 93 1009.1
20260505114552 68 171 7.8 12.2 0.00 0.01 0.00 93 1009.3
20260505113047 68 187 8.7 12.2 0.00 0.01 0.00 93 1009.3
20260505111546 68 174 10.4 15.6 0.00 0.01 0.00 93 1008.8
20260505101551 68 171 7.8 11.3 0.00 0.01 0.00 92 1009.0
20260505100048 68 167 9.6 12.2 0.00 0.01 0.00 91 1008.8
20260505094552 68 165 9.6 11.3 0.00 0.01 0.00 91 1009.0
20260505093053 68 186 8.7 10.4 0.00 0.01 0.00 91 1009.2
20260505091543 68 175 7.8 12.2 0.00 0.01 0.00 90 1009.4
20260505090053 68 182 8.7 11.3 0.00 0.01 0.00 90 1009.4
20260505084554 69 171 7.8 10.4 0.00 0.01 0.00 89 1009.4
20260505083058 69 171 7.0 9.6 0.00 0.01 0.00 89 1009.7
20260505081558 69 175 7.0 10.4 0.00 0.01 0.00 88 1009.9
20260505080051 69 171 8.7 11.3 0.00 0.01 0.00 88 1009.6
20260505074542 70 176 8.7 10.4 0.00 0.02 0.00 87 1009.8
20260505073049 70 198 9.6 13.0 0.00 0.02 0.00 86 1009.9
20260505071550 70 194 9.6 13.0 0.00 0.02 0.00 86 1010.1
20260505070048 71 201 11.3 15.6 0.00 0.02 0.00 85 1010.2
20260505064549 71 191 11.3 15.6 0.00 0.02 0.00 85 1010.5
20260505063051 71 194 12.2 15.6 0.00 0.02 0.00 84 1010.4
20260505061550 71 201 12.2 16.5 0.00 0.02 0.00 83 1010.4
20260505060052 72 198 13.9 20.9 0.00 0.02 0.00 83 1010.6